Date String (YYYY-MM-DD hh:mm:ss) UTC,Instrument flags,Ambient pressure (hPa),Sample flow (lpm),Bypass flow (lpm),Sample temperature (°C),Ambient temperature (°C),ASC tube jacket temperature (°C),LED temperature (°C),Box temperature (°C),Sample RH (%),Span deviation,Mass concentration (μg/m³),Mass concentration (μg/m³),Mass concentration (μg/m³)
DateTimeUTC,F1_M11,P_M11,Q1_M11,Q2_M11,T1_M11,T2_M11,T3_M11,T4_M11,T5_M11,U1_M11,ZSPAN_M11,X0_M11,X2_M11,X1_M11
2022-03-29 13:00:00,,0810.6,5.02,0.00,27.3,26.5,00.0,36.3,29.1,13.0,0003.5,0023.62,0008.82,0007.15
2022-03-29 13:01:00,,0810.6,4.99,0.00,27.3,26.5,00.0,36.3,29.1,13.0,0003.5,0023.53,0008.79,0007.14
2022-03-29 13:02:00,,0810.6,5.01,0.00,27.3,26.5,00.0,36.3,29.1,13.0,0003.0,0022.44,0008.77,0007.13
2022-03-29 13:03:00,,0810.6,5.00,0.00,27.3,26.5,00.0,36.3,29.2,13.0,0003.4,0022.52,0008.73,0007.12
2022-03-29 13:04:00,,0810.6,4.99,0.00,27.3,26.5,00.0,36.3,29.2,13.0,0003.4,0022.54,0008.74,0007.11
2022-03-29 13:05:00,,0810.6,4.99,0.00,27.4,26.6,00.0,36.3,29.2,13.0,0003.3,0022.58,0008.72,0007.10
2022-03-29 13:06:00,,0810.6,5.01,0.00,27.4,26.6,00.0,36.3,29.2,12.9,0003.9,0021.89,0008.64,0007.07
2022-03-29 13:07:00,,0810.6,5.00,0.00,27.4,26.7,00.0,36.4,29.2,12.8,0003.6,0020.52,0008.58,0007.02
2022-03-29 13:08:00,,0810.6,4.99,0.00,27.4,26.6,00.0,36.4,29.2,12.8,0003.5,0018.71,0008.56,0006.99
2022-03-29 13:09:00,,0810.6,5.02,0.00,27.4,26.6,00.0,36.4,29.2,12.9,0003.1,0018.67,0008.48,0006.95
2022-03-29 13:10:00,,0810.6,4.98,0.00,27.4,26.6,00.0,36.4,29.2,12.9,0003.0,0018.68,0008.42,0006.94
2022-03-29 13:11:00,,0810.6,4.99,0.00,27.4,26.6,00.0,36.4,29.2,12.8,0002.8,0018.81,0008.38,0006.93
2022-03-29 13:12:00,,0810.7,5.02,0.00,27.4,26.5,00.0,36.4,29.2,12.9,0002.5,0018.71,0008.37,0006.93
2022-03-29 13:13:00,,0810.7,4.99,0.00,27.4,26.5,00.0,36.4,29.2,12.9,0003.0,0019.63,0008.39,0006.93
2022-03-29 13:14:00,,0810.7,4.99,0.00,27.4,26.6,00.0,36.4,29.2,13.0,0003.2,0019.95,0008.39,0006.94
2022-03-29 13:15:00,,0810.7,5.02,0.00,27.4,26.6,00.0,36.4,29.2,13.0,0002.9,0018.88,0008.35,0006.94
2022-03-29 13:16:00,,0810.7,4.99,0.00,27.4,26.6,00.0,36.4,29.1,13.0,0003.4,0019.04,0008.36,0006.96
2022-03-29 13:17:00,,0810.7,4.98,0.00,27.3,26.5,00.0,36.4,29.1,13.1,0002.5,0019.49,0008.44,0007.00
2022-03-29 13:18:00,,0810.7,5.01,0.00,27.3,26.5,00.0,36.4,29.0,13.0,0002.6,0019.17,0008.53,0007.05
2022-03-29 13:19:00,,0810.7,4.99,0.00,27.3,26.5,00.0,36.4,29.0,13.2,0003.2,0018.94,0008.56,0007.10
2022-03-29 13:20:00,,0810.7,4.99,0.00,27.3,26.5,00.0,36.3,29.0,13.2,0004.2,0018.92,0008.62,0007.15
2022-03-29 13:21:00,,0810.8,5.01,0.00,27.3,26.5,00.0,36.3,29.0,13.1,0003.4,0018.95,0008.66,0007.17
2022-03-29 13:22:00,,0810.8,4.99,0.00,27.3,26.4,00.0,36.3,29.0,13.1,0003.1,0019.60,0008.72,0007.21
2022-03-29 13:23:00,,0810.8,5.01,0.00,27.2,26.3,00.0,36.3,29.0,13.1,0003.6,0019.63,0008.78,0007.25
2022-03-29 13:24:00,,0810.8,4.99,0.00,27.2,26.2,00.0,36.3,28.9,13.2,0004.0,0018.90,0008.75,0007.26
2022-03-29 13:25:00,,0810.8,5.01,0.00,27.1,26.1,00.0,36.3,28.8,13.2,0004.0,0017.74,0008.81,0007.28
2022-03-29 13:26:00,,0810.8,4.98,0.00,27.1,26.0,00.0,36.3,28.8,13.2,0004.6,0017.88,0008.86,0007.30
2022-03-29 13:27:00,,0810.8,5.01,0.00,27.1,26.0,00.0,36.2,28.8,13.3,0004.4,0018.05,0008.91,0007.32
2022-03-29 13:28:00,,0810.9,5.00,0.00,27.0,26.0,00.0,36.2,28.7,13.3,0003.7,0018.19,0008.92,0007.31
2022-03-29 13:29:00,,0810.8,4.99,0.00,27.0,26.0,00.0,36.2,28.7,13.3,0003.3,0018.08,0008.88,0007.29
2022-03-29 13:30:00,,0810.9,5.02,0.00,27.0,25.9,00.0,36.2,28.7,13.4,0003.2,0017.93,0008.85,0007.28
2022-03-29 13:31:00,,0810.8,4.99,0.00,27.0,25.9,00.0,36.2,28.7,13.4,0003.2,0018.16,0008.81,0007.26
2022-03-29 13:32:00,,0810.9,5.01,0.00,27.0,25.8,00.0,36.1,28.6,13.4,0003.3,0018.63,0008.81,0007.24
2022-03-29 13:33:00,,0810.8,5.01,0.00,26.9,25.8,00.0,36.1,28.6,13.4,0004.0,0017.73,0008.76,0007.19
2022-03-29 13:34:00,,0810.8,4.98,0.00,26.9,25.8,00.0,36.1,28.6,13.5,0004.2,0018.19,0008.73,0007.15
2022-03-29 13:35:00,,0810.9,5.01,0.00,26.9,25.8,00.0,36.1,28.6,13.5,0004.3,0018.38,0008.70,0007.11
2022-03-29 13:36:00,,0810.9,5.00,0.00,26.9,25.9,00.0,36.1,28.6,13.5,0004.3,0017.99,0008.64,0007.09
2022-03-29 13:37:00,,0810.9,5.00,0.00,26.9,25.9,00.0,36.1,28.7,13.6,0004.3,0018.99,0008.58,0007.06
2022-03-29 13:38:00,,0810.9,5.00,0.00,26.9,25.9,00.0,36.0,28.7,13.5,0004.6,0018.76,0008.54,0007.03
2022-03-29 13:39:00,,0810.9,5.01,0.00,26.9,26.0,00.0,36.0,28.7,13.5,0004.8,0018.16,0008.47,0006.99
2022-03-29 13:40:00,,0810.9,5.00,0.00,26.9,26.0,00.0,36.0,28.7,13.5,0005.0,0017.89,0008.44,0006.98
2022-03-29 13:41:00,,0810.9,4.99,0.00,26.9,26.0,00.0,36.0,28.6,13.6,0004.7,0018.37,0008.40,0006.95
2022-03-29 13:42:00,,0810.9,5.00,0.00,26.9,26.0,00.0,36.0,28.7,13.6,0004.9,0018.63,0008.44,0006.94
2022-03-29 13:43:00,,0810.9,5.00,0.00,26.9,26.0,00.0,36.0,28.7,13.5,0005.0,0018.19,0008.41,0006.94
2022-03-29 13:44:00,,0810.9,5.00,0.00,26.9,26.0,00.0,36.0,28.7,13.6,0004.9,0018.06,0008.42,0006.94
2022-03-29 13:45:00,,0810.9,5.00,0.00,26.9,26.1,00.0,36.0,28.7,13.6,0004.8,0017.10,0008.38,0006.94
2022-03-29 13:46:00,,0810.9,4.99,0.00,26.9,26.1,00.0,36.0,28.7,13.6,0004.6,0016.92,0008.39,0006.94
2022-03-29 13:47:00,,0810.8,5.01,0.00,26.9,26.0,00.0,36.0,28.7,13.6,0004.4,0017.25,0008.40,0006.94
2022-03-29 13:48:00,,0810.8,4.99,0.00,26.9,26.0,00.0,36.0,28.7,13.6,0004.3,0017.23,0008.42,0006.94
2022-03-29 13:49:00,,0810.8,5.00,0.00,26.9,26.0,00.0,36.0,28.7,13.6,0003.9,0018.09,0008.38,0006.93
2022-03-29 13:50:00,,0810.8,5.01,0.00,26.9,26.1,00.0,36.0,28.7,13.6,0003.6,0018.59,0008.42,0006.94
2022-03-29 13:51:00,,0810.8,5.00,0.00,26.9,26.1,00.0,36.0,28.7,13.6,0003.4,0018.68,0008.49,0006.94
2022-03-29 13:52:00,,0810.8,5.01,0.00,26.9,26.1,00.0,36.0,28.7,13.7,0003.7,0018.54,0008.51,0006.95
2022-03-29 13:53:00,,0810.8,5.00,0.00,26.9,26.1,00.0,36.0,28.7,13.7,0003.3,0018.70,0008.50,0006.97
2022-03-29 13:54:00,,0810.8,4.99,0.00,26.9,26.1,00.0,36.0,28.7,13.7,0003.2,0019.61,0008.51,0006.96
2022-03-29 13:55:00,,0810.8,5.01,0.00,26.9,26.1,00.0,35.9,28.7,13.7,0003.2,0020.55,0008.52,0006.95
2022-03-29 13:56:00,,0810.7,5.01,0.00,26.9,26.0,00.0,35.9,28.7,13.6,0003.0,0020.84,0008.54,0006.94
2022-03-29 13:57:00,,0810.7,4.99,0.00,26.9,26.0,00.0,35.9,28.6,13.7,0003.2,0020.90,0008.53,0006.92
2022-03-29 13:58:00,,0810.7,4.99,0.00,26.9,26.0,00.0,35.9,28.6,13.7,0003.1,0020.31,0008.48,0006.90
2022-03-29 13:59:00,,0810.6,5.01,0.00,26.8,25.9,00.0,35.9,28.6,13.7,0002.7,0019.99,0008.43,0006.87
